This is the latest recevied weather packets stored in our database for station/object T10BNorth. If no packets are shown the sender has not sent any weather packets the latest 10 day(s).
| Time | Temp. | Humidity | Pressure | Rain* | Wind** | Luminosity | Snow |
|---|---|---|---|---|---|---|---|
| 1777644371 | 6.11° C | 71% | 1007.8 hPa | 0 mm | - | 320 W/m² | - |
| 1777644311 | 6.11° C | 70% | 1007.8 hPa | 0 mm | - | 403 W/m² | - |
| 1777644252 | 6.11° C | 71% | 1007.8 hPa | 0 mm | - | 403 W/m² | - |
| 1777644191 | 6.11° C | 70% | 1007.8 hPa | 0 mm | - | 364 W/m² | - |
| 1777644130 | 6.11° C | 73% | 1007.8 hPa | 0 mm | - | 364 W/m² | - |
| 1777644070 | 6.11° C | 74% | 1007.8 hPa | 0 mm | - | 439 W/m² | - |
| 1777644012 | 5.56° C | 72% | 1007.6 hPa | 0 mm | - | 439 W/m² | - |
| 1777643951 | 5.56° C | 72% | 1007.8 hPa | 0 mm | - | 439 W/m² | - |
| 1777643889 | 5.56° C | 72% | 1007.8 hPa | 0 mm | - | 439 W/m² | - |
| 1777643828 | 5.56° C | 73% | 1007.8 hPa | 0 mm | - | 439 W/m² | - |
| 1777643768 | 5.56° C | 73% | 1007.8 hPa | 0 mm | - | 439 W/m² | - |
| 1777643708 | 5.56° C | 73% | 1007.8 hPa | 0 mm | - | 439 W/m² | - |
| 1777643650 | 5.56° C | 72% | 1007.9 hPa | 0 mm | - | 439 W/m² | - |
| 1777643588 | 5.56° C | 73% | 1007.9 hPa | 0 mm | - | 439 W/m² | - |
| 1777643530 | 5.56° C | 74% | 1007.8 hPa | 0 mm | - | 315 W/m² | - |
| 1777643468 | 5.56° C | 72% | 1007.9 hPa | 0 mm | - | 315 W/m² | - |
| 1777643409 | 5.56° C | 76% | 1007.8 hPa | 0 mm | - | 315 W/m² | - |
| 1777643348 | 5° C | 74% | 1007.9 hPa | 0 mm | - | 694 W/m² | - |
| 1777643300 | 5° C | 75% | 1007.9 hPa | 0 mm | - | 694 W/m² | - |
| 1777643280 | 5° C | 72% | 1008 hPa | 0 mm | - | 292 W/m² | - |
| 1777643168 | 5° C | 75% | 1007.9 hPa | 0 mm | - | 269 W/m² | - |
| 1777643109 | 5° C | 75% | 1007.9 hPa | 0 mm | - | 246 W/m² | - |
| 1777643049 | 5° C | 75% | 1007.9 hPa | 0 mm | - | 246 W/m² | - |
| 1777642989 | 5° C | 75% | 1007.9 hPa | 0 mm | - | 236 W/m² | - |
| 1777642928 | 5° C | 76% | 1008 hPa | 0 mm | - | 234 W/m² | - |
* Rain latest hour (hover to see other rain measurements)
** Current wind speed in m/s (hover to see current wind gust speed)